GW5308 Weather Reports


time (UTC)temp
C
wind
direction
speed
KPH
gust
KPH
rain 1hr
cm
rain 24hr
cm
rain mn
cm
humidity
%
barometer
mb
20260507010515 25 259 0.0 8.0 0.00 0.00 0.00 66 1014.2
20260507010042 25 76 0.0 8.0 0.00 0.00 0.00 66 1014.2
20260507005512 26 0 0.0 6.4 0.00 0.00 0.00 67 1014.1
20260507005017 26 250 0.0 6.4 0.00 0.00 0.00 68 1014.1
20260507004531 26 0 1.6 6.4 0.00 0.00 0.00 69 1014.3
20260507004014 26 0 0.0 1.6 0.00 0.00 0.00 71 1014.2
20260507003514 26 211 0.0 1.6 0.00 0.00 0.00 71 1014.2
20260507003031 26 293 0.0 3.2 0.00 0.00 0.00 70 1014.1
20260507002514 26 0 0.0 3.2 0.00 0.00 0.00 69 1013.9
20260507002015 26 304 0.0 3.2 0.00 0.00 0.00 69 1013.9
20260507001533 27 281 0.0 6.4 0.00 0.00 0.00 68 1014.0
20260507001015 27 253 0.0 6.4 0.00 0.00 0.00 68 1013.9
20260507000522 27 144 0.0 6.4 0.00 0.00 0.00 68 1013.8
20260507000035 27 265 0.0 3.2 0.00 0.00 0.00 67 1013.8
20260506235513 27 280 0.0 3.2 0.00 0.00 0.00 67 1013.8
20260506235016 27 30 1.6 4.8 0.00 0.00 0.00 66 1013.8
20260506234534 28 0 0.0 4.8 0.00 0.00 0.00 65 1013.9
20260506234013 28 311 1.6 4.8 0.00 0.00 0.00 65 1013.9
20260506233516 28 292 0.0 4.8 0.00 0.00 0.00 65 1013.8
20260506233032 28 340 0.0 3.2 0.00 0.00 0.00 64 1013.8
20260506232520 28 198 0.0 3.2 0.00 0.00 0.00 64 1013.9
20260506232015 29 300 0.0 4.8 0.00 0.00 0.00 63 1013.9
20260506231534 29 262 0.0 4.8 0.00 0.00 0.00 62 1013.8
20260506231014 29 29 1.6 8.0 0.00 0.00 0.00 62 1013.7
20260506230514 29 0 1.6 8.0 0.00 0.00 0.00 61 1013.6
20260506230035 30 345 1.6 8.0 0.00 0.00 0.00 61 1013.6
20260506225518 30 326 1.6 4.8 0.00 0.00 0.00 61 1013.4
20260506225015 30 0 0.0 6.4 0.00 0.00 0.00 61 1013.5
20260506224535 30 112 1.6 6.4 0.00 0.00 0.00 60 1013.5
20260506224016 30 320 3.2 6.4 0.00 0.00 0.00 59 1013.6
20260506223516 30 253 1.6 6.4 0.00 0.00 0.00 59 1013.6
20260506223032 31 354 1.6 9.7 0.00 0.00 0.00 58 1013.7
20260506222514 31 18 1.6 9.7 0.00 0.00 0.00 57 1013.5
20260506222016 31 304 1.6 8.0 0.00 0.00 0.00 57 1013.6
20260506221533 31 2 1.6 8.0 0.00 0.00 0.00 56 1013.7
20260506221016 31 337 1.6 9.7 0.00 0.00 0.00 57 1013.7
20260506220516 32 2 1.6 9.7 0.00 0.00 0.00 56 1013.7
20260506220036 32 47 3.2 9.7 0.00 0.00 0.00 55 1013.7
20260506215515 33 342 1.6 4.8 0.00 0.00 0.00 53 1013.7
20260506215014 33 270 1.6 4.8 0.00 0.00 0.00 48 1013.7
20260506214532 34 243 0.0 3.2 0.00 0.00 0.00 43 1013.7
20260506214015 33 242 0.0 3.2 0.00 0.00 0.00 44 1013.7
20260506213514 34 240 0.0 3.2 0.00 0.00 0.00 43 1013.7
20260506213034 33 0 0.0 3.2 0.00 0.00 0.00 44 1013.7
20260506212515 34 0 0.0 1.6 0.00 0.00 0.00 44 1013.8
20260506212020 34 289 0.0 1.6 0.00 0.00 0.00 43 1013.7
20260506211534 34 0 0.0 1.6 0.00 0.00 0.00 43 1013.7
20260506211015 34 243 0.0 4.8 0.00 0.00 0.00 44 1013.7
20260506210516 34 0 0.0 4.8 0.00 0.00 0.00 43 1013.7
20260506210037 34 214 0.0 3.2 0.00 0.00 0.00 44 1013.7
20260506205514 34 0 0.0 3.2 0.00 0.00 0.00 44 1013.7
20260506205016 34 253 0.0 3.2 0.00 0.00 0.00 42 1013.7
20260506204547 34 211 0.0 3.2 0.00 0.00 0.00 44 1013.7
20260506204017 33 163 0.0 1.6 0.00 0.00 0.00 44 1013.8
20260506203518 33 241 0.0 3.2 0.00 0.00 0.00 43 1013.8
20260506203034 33 242 0.0 3.2 0.00 0.00 0.00 45 1013.9
20260506202514 33 246 0.0 3.2 0.00 0.00 0.00 43 1013.9
20260506202014 33 0 0.0 3.2 0.00 0.00 0.00 44 1014.0
20260506201535 33 240 0.0 3.2 0.00 0.00 0.00 43 1014.0
20260506201014 33 0 0.0 3.2 0.00 0.00 0.00 41 1014.0
20260506200513 34 224 0.0 1.6 0.00 0.00 0.00 41 1013.9
20260506200034 33 245 0.0 3.2 0.00 0.00 0.00 43 1014.0
20260506195514 33 297 0.0 4.8 0.00 0.00 0.00 44 1014.0
20260506195019 33 320 0.0 4.8 0.00 0.00 0.00 43 1014.1
20260506194534 33 238 0.0 3.2 0.00 0.00 0.00 43 1014.1
20260506194014 33 216 0.0 4.8 0.00 0.00 0.00 44 1014.3
20260506193512 33 231 0.0 4.8 0.00 0.00 0.00 44 1014.4
20260506193031 33 42 1.6 6.4 0.00 0.00 0.00 44 1014.4
20260506192513 33 241 1.6 6.4 0.00 0.00 0.00 44 1014.4
20260506192014 33 0 1.6 6.4 0.00 0.00 0.00 41 1014.5
20260506191534 34 337 0.0 6.4 0.00 0.00 0.00 41 1014.7
20260506191012 33 0 0.0 6.4 0.00 0.00 0.00 43 1014.8
20260506190511 33 91 1.6 6.4 0.00 0.00 0.00 40 1014.9
20260506190033 33 40 0.0 6.4 0.00 0.00 0.00 44 1015.0
20260506185514 33 37 0.0 6.4 0.00 0.00 0.00 45 1015.1
20260506185014 33 15 1.6 4.8 0.00 0.00 0.00 43 1015.0
20260506184532 33 10 0.0 4.8 0.00 0.00 0.00 46 1015.2
20260506184014 33 60 1.6 6.4 0.00 0.00 0.00 45 1015.2
20260506183514 33 266 1.6 6.4 0.00 0.00 0.00 46 1015.2
20260506183030 33 209 1.6 4.8 0.00 0.00 0.00 45 1015.2
20260506182513 33 285 0.0 4.8 0.00 0.00 0.00 45 1015.3
20260506182016 32 262 0.0 8.0 0.00 0.00 0.00 50 1015.2
20260506181532 32 0 0.0 8.0 0.00 0.00 0.00 47 1015.3
20260506181014 32 224 1.6 4.8 0.00 0.00 0.00 47 1015.5
20260506180517 32 3 0.0 4.8 0.00 0.00 0.00 46 1015.5
20260506180032 32 242 0.0 6.4 0.00 0.00 0.00 48 1015.5
20260506175511 32 124 3.2 6.4 0.00 0.00 0.00 47 1015.5
20260506175010 32 248 0.0 6.4 0.00 0.00 0.00 50 1015.5
20260506174533 32 304 1.6 8.0 0.00 0.00 0.00 49 1015.8
20260506174017 32 117 1.6 8.0 0.00 0.00 0.00 50 1015.8
20260506173513 32 178 0.0 6.4 0.00 0.00 0.00 51 1015.7
20260506173032 32 31 1.6 6.4 0.00 0.00 0.00 51 1015.7
20260506172514 32 127 1.6 6.4 0.00 0.00 0.00 52 1015.7
20260506172014 32 0 0.0 6.4 0.00 0.00 0.00 53 1015.8
20260506171540 32 37 0.0 6.4 0.00 0.00 0.00 55 1015.8
20260506171015 31 234 0.0 6.4 0.00 0.00 0.00 55 1015.9
20260506170514 31 11 0.0 4.8 0.00 0.00 0.00 55 1016.0
20260506170043 31 0 1.6 4.8 0.00 0.00 0.00 55 1016.1
20260506165514 31 0 0.0 4.8 0.00 0.00 0.00 55 1016.2
20260506165014 31 257 1.6 4.8 0.00 0.00 0.00 56 1016.4
20260506164539 31 226 0.0 3.2 0.00 0.00 0.00 57 1016.4
20260506164014 31 215 0.0 3.2 0.00 0.00 0.00 55 1016.4
20260506163518 31 242 1.6 3.2 0.00 0.00 0.00 52 1016.6
20260506163033 31 0 0.0 3.2 0.00 0.00 0.00 56 1016.6
20260506162513 31 229 0.0 3.2 0.00 0.00 0.00 59 1016.7
20260506162019 30 221 0.0 6.4 0.00 0.00 0.00 59 1016.7
20260506161539 31 241 1.6 6.4 0.00 0.00 0.00 59 1016.7
20260506161016 31 0 0.0 3.2 0.00 0.00 0.00 58 1016.8
20260506160518 30 165 0.0 3.2 0.00 0.00 0.00 60 1016.8
20260506160042 30 234 0.0 3.2 0.00 0.00 0.00 61 1016.7
20260506155516 30 226 0.0 4.8 0.00 0.00 0.00 63 1016.7
20260506155014 30 293 1.6 4.8 0.00 0.00 0.00 62 1016.7
20260506154533 30 155 1.6 6.4 0.00 0.00 0.00 60 1016.7
20260506154016 30 0 0.0 6.4 0.00 0.00 0.00 65 1016.7
20260506153517 30 257 0.0 4.8 0.00 0.00 0.00 62 1016.8
20260506153034 30 241 0.0 3.2 0.00 0.00 0.00 65 1016.8
20260506152514 29 258 1.6 4.8 0.00 0.00 0.00 67 1016.7
20260506152015 29 251 0.0 4.8 0.00 0.00 0.00 65 1016.7
20260506151545 29 259 0.0 4.8 0.00 0.00 0.00 65 1016.7
20260506151015 29 274 1.6 4.8 0.00 0.00 0.00 66 1016.6
20260506150519 28 230 0.0 4.8 0.00 0.00 0.00 66 1016.6
20260506150034 28 217 1.6 4.8 0.00 0.00 0.00 67 1016.5
20260506145516 28 209 0.0 4.8 0.00 0.00 0.00 67 1016.6
20260506145019 28 263 1.6 4.8 0.00 0.00 0.00 70 1016.5
20260506144534 28 269 0.0 4.8 0.00 0.00 0.00 69 1016.5
20260506144025 28 233 1.6 6.4 0.00 0.00 0.00 70 1016.7
20260506143519 28 0 0.0 6.4 0.00 0.00 0.00 69 1016.6
20260506143043 27 218 1.6 4.8 0.00 0.00 0.00 71 1016.5
20260506142514 27 255 0.0 4.8 0.00 0.00 0.00 73 1016.5
20260506142014 28 115 0.0 3.2 0.00 0.00 0.00 72 1016.5
20260506141532 28 257 0.0 3.2 0.00 0.00 0.00 71 1016.5
20260506141014 27 0 0.0 4.8 0.00 0.00 0.00 74 1016.4
20260506140516 27 0 0.0 4.8 0.00 0.00 0.00 74 1016.4
20260506140038 27 0 1.6 4.8 0.00 0.00 0.00 75 1016.4
20260506135515 27 0 0.0 4.8 0.00 0.00 0.00 78 1016.4
20260506135020 26 258 0.0 4.8 0.00 0.00 0.00 80 1016.4
20260506134534 26 267 0.0 4.8 0.00 0.00 0.00 80 1016.4
20260506134017 26 255 0.0 4.8 0.00 0.00 0.00 81 1016.3
20260506133515 26 37 0.0 4.8 0.00 0.00 0.00 81 1016.3
20260506133034 25 266 0.0 4.8 0.00 0.00 0.00 82 1016.2
20260506132520 25 0 0.0 3.2 0.00 0.00 0.00 84 1016.2
20260506132016 25 0 0.0 3.2 0.00 0.00 0.00 85 1016.2
20260506131533 24 0 0.0 4.8 0.00 0.00 0.00 87 1016.1
20260506131017 23 235 0.0 4.8 0.00 0.00 0.00 88 1016.1
20260506130519 23 0 0.0 3.2 0.00 0.00 0.00 91 1016.1
20260506130033 22 0 0.0 3.2 0.00 0.00 0.00 93 1016.2
20260506125516 22 0 0.0 3.2 0.00 0.00 0.00 95 1016.2
20260506125018 21 0 0.0 3.2 0.00 0.00 0.00 98 1016.2
20260506124531 20 0 0.0 0.0 0.00 0.00 0.00 100 1016.2
20260506124015 20 0 0.0 0.0 0.00 0.00 0.00 100 1016.2
20260506123515 18 0 0.0 0.0 0.00 0.00 0.00 100 1016.1
20260506123034 18 0 0.0 0.0 0.00 0.00 0.00 100 1016.1
20260506122514 18 0 0.0 0.0 0.00 0.00 0.00 100 1016.1
20260506122014 18 0 0.0 0.0 0.00 0.00 0.00 100 1016.0
20260506121534 17 0 0.0 0.0 0.00 0.00 0.00 100 1015.9
20260506121015 17 0 0.0 0.0 0.00 0.00 0.00 100 1015.9
20260506120518 17 0 0.0 0.0 0.00 0.00 0.00 100 1016.0
20260506120033 16 0 0.0 0.0 0.00 0.00 0.00 100 1015.9
20260506115515 16 0 0.0 0.0 0.00 0.00 0.00 100 1015.8
20260506115017 16 0 0.0 0.0 0.00 0.00 0.00 100 1015.9
20260506114541 15 0 0.0 0.0 0.00 0.00 0.00 100 1015.8
20260506114014 15 0 0.0 0.0 0.00 0.00 0.00 100 1015.8
20260506113515 15 0 0.0 0.0 0.00 0.00 0.00 100 1015.7
20260506113032 15 0 0.0 0.0 0.00 0.00 0.00 100 1015.7
20260506112516 14 0 0.0 0.0 0.00 0.00 0.00 100 1015.6
20260506112015 14 0 0.0 0.0 0.00 0.00 0.00 100 1015.6
20260506111534 14 0 0.0 0.0 0.00 0.00 0.00 100 1015.5
20260506111015 13 0 0.0 0.0 0.00 0.00 0.00 100 1015.4
20260506110520 13 0 0.0 0.0 0.00 0.00 0.00 100 1015.3
20260506110037 13 0 0.0 0.0 0.00 0.00 0.00 100 1015.4
20260506105515 13 0 0.0 0.0 0.00 0.00 0.00 100 1015.3
20260506105015 13 0 0.0 0.0 0.00 0.00 0.00 100 1015.2
20260506104534 13 0 0.0 0.0 0.00 0.00 0.00 100 1015.1
20260506104013 13 0 0.0 0.0 0.00 0.00 0.00 100 1015.1
20260506103514 13 0 0.0 0.0 0.00 0.00 0.00 100 1015.1
20260506103034 13 0 0.0 0.0 0.00 0.00 0.00 100 1015.0
20260506102514 13 0 0.0 0.0 0.00 0.00 0.00 100 1015.1
20260506102016 13 0 0.0 0.0 0.00 0.00 0.00 100 1015.1
20260506101547 13 0 0.0 0.0 0.00 0.00 0.00 100 1015.0
20260506101016 13 0 0.0 0.0 0.00 0.00 0.00 100 1014.9
20260506100518 13 0 0.0 0.0 0.00 0.00 0.00 100 1014.9
20260506100032 13 0 0.0 0.0 0.00 0.00 0.00 100 1015.0
20260506095515 13 0 0.0 0.0 0.00 0.00 0.00 100 1014.9
20260506095015 13 0 0.0 0.0 0.00 0.00 0.00 100 1014.9
20260506094540 13 0 0.0 0.0 0.00 0.00 0.00 100 1015.0
20260506094017 13 0 0.0 0.0 0.00 0.00 0.00 100 1014.9
20260506093515 13 0 0.0 0.0 0.00 0.00 0.00 100 1015.0
20260506093035 13 0 0.0 0.0 0.00 0.00 0.00 100 1014.9
20260506092516 13 0 0.0 0.0 0.00 0.00 0.00 100 1014.9
20260506092019 13 0 0.0 0.0 0.00 0.00 0.00 100 1014.9
20260506091533 13 0 0.0 0.0 0.00 0.00 0.00 100 1015.0
20260506091014 13 0 0.0 0.0 0.00 0.00 0.00 100 1014.7
20260506090515 13 0 0.0 0.0 0.00 0.00 0.00 100 1014.7
20260506090036 13 0 0.0 0.0 0.00 0.00 0.00 100 1014.7
20260506085515 13 0 0.0 0.0 0.00 0.00 0.00 99 1014.7
20260506085014 13 0 0.0 0.0 0.00 0.00 0.00 100 1014.7
20260506084533 13 0 0.0 0.0 0.00 0.00 0.00 100 1014.6
20260506084016 13 0 0.0 0.0 0.00 0.00 0.00 100 1014.7
20260506083517 13 0 0.0 0.0 0.00 0.00 0.00 99 1014.6
20260506083032 13 0 0.0 0.0 0.00 0.00 0.00 99 1014.6
20260506082516 13 0 0.0 0.0 0.00 0.00 0.00 100 1014.7
20260506082018 13 0 0.0 0.0 0.00 0.00 0.00 99 1014.8
20260506081531 13 0 0.0 0.0 0.00 0.00 0.00 100 1014.9
20260506081018 13 0 0.0 0.0 0.00 0.00 0.00 100 1014.9
20260506080520 13 0 0.0 0.0 0.00 0.00 0.00 99 1014.8
20260506073516 13 0 0.0 0.0 0.00 0.00 0.00 99 1014.6
20260506073041 13 0 0.0 0.0 0.00 0.00 0.00 99 1014.9
20260506072518 13 0 0.0 0.0 0.00 0.00 0.00 99 1014.9
20260506072017 13 0 0.0 0.0 0.00 0.00 0.00 99 1015.0
20260506071533 13 0 0.0 0.0 0.00 0.00 0.00 99 1014.9
20260506071016 13 0 0.0 0.0 0.00 0.00 0.00 99 1014.8
20260506070515 13 0 0.0 0.0 0.00 0.00 0.00 99 1014.9
20260506062017 14 0 0.0 0.0 0.00 0.00 0.00 98 1015.2
20260506061535 14 0 0.0 0.0 0.00 0.00 0.00 98 1015.4
20260506061019 14 0 0.0 0.0 0.00 0.00 0.00 98 1015.4
20260506060514 14 0 0.0 0.0 0.00 0.00 0.00 97 1015.4
20260506051017 15 0 0.0 0.0 0.00 0.00 0.00 97 1015.8
20260506050521 14 0 0.0 0.0 0.00 0.00 0.00 96 1015.8
20260506045014 15 0 0.0 0.0 0.00 0.00 0.00 95 1016.1
20260506044535 15 0 0.0 0.0 0.00 0.00 0.00 95 1016.1
20260506044021 15 0 0.0 0.0 0.00 0.00 0.00 95 1016.2
20260506043516 15 0 0.0 0.0 0.00 0.00 0.00 95 1016.3
20260506043034 15 0 0.0 0.0 0.00 0.00 0.00 95 1016.2
20260506042515 15 0 0.0 0.0 0.00 0.00 0.00 95 1016.1
20260506042022 15 0 0.0 0.0 0.00 0.00 0.00 95 1016.2
20260506041542 15 0 0.0 0.0 0.00 0.00 0.00 94 1016.2
20260506041017 15 0 0.0 0.0 0.00 0.00 0.00 94 1016.1
20260506040522 15 0 0.0 0.0 0.00 0.00 0.00 93 1016.1
20260506040031 15 0 0.0 0.0 0.00 0.00 0.00 93 1015.9
20260506035518 16 0 0.0 0.0 0.00 0.00 0.00 93 1016.0
20260506035016 16 0 0.0 0.0 0.00 0.00 0.00 92 1015.8
20260506034536 16 0 0.0 0.0 0.00 0.00 0.00 92 1015.8
20260506034014 16 0 0.0 0.0 0.00 0.00 0.00 92 1015.8
20260506033515 16 0 0.0 0.0 0.00 0.00 0.00 91 1015.7
20260506033035 16 0 0.0 0.0 0.00 0.00 0.00 92 1015.6
20260506032518 16 0 0.0 0.0 0.00 0.00 0.00 92 1015.5
20260506032014 16 0 0.0 0.0 0.00 0.00 0.00 92 1015.5
20260506031532 16 0 0.0 0.0 0.00 0.00 0.00 91 1015.4
20260506031016 16 0 0.0 0.0 0.00 0.00 0.00 90 1015.3
20260506030517 16 0 0.0 0.0 0.00 0.00 0.00 91 1015.3
20260506030034 16 0 0.0 0.0 0.00 0.00 0.00 91 1015.2
20260506025515 16 0 0.0 0.0 0.00 0.00 0.00 91 1015.2
20260506025015 16 0 0.0 0.0 0.00 0.00 0.00 90 1015.2
20260506024535 16 0 0.0 0.0 0.00 0.00 0.00 90 1015.2
20260506024014 16 0 0.0 0.0 0.00 0.00 0.00 89 1015.3
20260506023516 16 0 0.0 0.0 0.00 0.00 0.00 88 1015.2
20260506023033 16 0 0.0 0.0 0.00 0.00 0.00 89 1015.2
20260506022517 16 0 0.0 0.0 0.00 0.00 0.00 88 1015.2
20260506022014 16 0 0.0 0.0 0.00 0.00 0.00 88 1015.3
20260506021534 17 0 0.0 0.0 0.00 0.00 0.00 87 1015.3
20260506021016 17 0 0.0 0.0 0.00 0.00 0.00 86 1015.4
20260506020515 17 0 0.0 0.0 0.00 0.00 0.00 85 1015.4
20260506020032 17 0 0.0 0.0 0.00 0.00 0.00 85 1015.3
20260506015515 17 0 0.0 0.0 0.00 0.00 0.00 84 1015.3
20260506015017 17 0 0.0 0.0 0.00 0.00 0.00 84 1015.2
20260506014544 18 0 0.0 0.0 0.00 0.00 0.00 82 1015.2
20260506014013 18 0 0.0 0.0 0.00 0.00 0.00 83 1015.1
20260506013513 18 0 0.0 0.0 0.00 0.00 0.00 80 1015.2
20260506013032 18 0 0.0 0.0 0.00 0.00 0.00 80 1015.1
20260506012513 18 0 0.0 0.0 0.00 0.00 0.00 79 1015.1
20260506012014 19 0 0.0 0.0 0.00 0.00 0.00 78 1015.2
20260506011534 19 0 0.0 0.0 0.00 0.00 0.00 77 1015.2
20260506011015 20 0 0.0 0.0 0.00 0.00 0.00 77 1015.2